Probability
0 0 0 0 0 0 0 0 0 1 0 2 9 16 14 9 10 12 10 5 1 1 0 0 1 2 4 6 8 10 16 21 21 18 14 12 14 14 17 25 32 31 29 30
0 0 0 0 0 0 0 0 0 1 0 1 5 10 10 7 6 7 5 2 1 1 1 1 1 2 4 6 8 11 19 24 24 20 13 11 12 9 10 17 22 21 18 17
0 0 0 0 0 0 0 0 0 0 0 1 3 6 9 7 3 2 1 0 0 1 1 1 1 1 2 4 6 10 17 22 22 16 7 5 5 3 3 6 10 9 7 6
0 0 0 0 0 0 0 0 0 0 0 1 3 6 9 7 3 2 2 1 0 1 1 1 1 0 0 1 3 6 10 12 11 6 2 0 0 0 0 1 2 3 3 2
0 0 0 0 0 0 0 0 0 0 0 1 2 4 5 5 6 9 8 3 0 0 0 0 0 0 0 0 1 2 3 3 2 1 0 0 0 0 0 0 0 1 1 1
0 0 0 0 0 0 0 0 0 1 1 1 1 2 4 6 12 18 14 6 1 0 0 0 0 0 0 0 0 1 1 1 0 0 0 0 0 0 0 0 0 0 0 0
0 0 0 0 0 0 0 0 0 2 2 2 0 2 5 9 13 16 14 6 1 0 0 0 0 0 0 0 0 0 0 0 0 0 0 0 0 0 0 0 0 0 0 0
0 0 0 0 0 0 0 0 0 1 1 1 3 7 9 8 8 8 6 3 1 0 0 0 0 0 0 0 0 0 0 0 0 0 0 0 0 0 0 0 0 0 0 0
0 0 0 0 0 0 0 0 0 0 0 0 4 11 9 4 2 1 1 1 0 0 0 0 0 0 0 0 0 0 0 0 0 0 0 0 0 0 0 0 0 0 0 0
0 0 0 0 0 0 0 0 0 0 0 0 3 5 4 1 0 0 0 0 0 0 0 0 0 0 0 0 0 0 0 0 0 0 0 0 0 0 0 0 0 0 0 0
0 0 0 0 0 0 0 0 0 0 0 0 0 0 0 0 0 0 0 0 0 0 0 0 0 0 0 0 0 0 0 0 0 0 0 0 0 0 0 0 0 0 0 0
0 0 0 0 0 0 0 0 0 0 0 0 0 0 0 0 0 0 0 0 0 0 0 0 0 0 0 0 0 0 0 0 0 0 0 0 0 0 0 0 0 0 0 0
0 0 0 0 0 0 0 0 0 0 0 0 0 0 0 0 0 0 0 0 0 0 0 0 0 0 0 0 0 0 0 0 0 0 0 0 0 0 0 0 0 0 0 0
0 0 0 0 0 0 0 0 0 0 0 0 0 0 0 0 0 0 0 0 0 0 0 0 0 0 0 0 0 0 0 0 0 0 0 0 0 0 0 0 0 0 0 0
0 0 0 0 0 0 0 0 0 0 0 0 0 0 0 0 0 0 0 0 0 0 0 0 0 0 0 0 0 0 0 0 0 0 0 0 0 0 0 0 0 0 0 0
0 0 0 0 0 0 0 0 0 0 0 0 0 0 0 0 0 0 0 0 0 0 0 0 0 0 0 0 0 0 0 0 0 0 0 0 0 0 0 0 0 0 0 0
0 0 0 0 0 0 0 0 0 0 0 0 0 0 0 0 0 0 0 0 0 0 0 0 0 0 0 0 0 0 0 0 0 0 0 0 0 0 0 0 0 0 0 0
0 0 0 0 0 0 0 0 0 0 0 0 0 0 0 0 0 0 0 0 0 0 0 0 0 0 0 0 0 0 0 0 0 0 0 0 0 0 0 0 0 0 0 0
0 0 0 0 0 0 0 0 0 0 0 0 0 0 0 0 0 0 0 0 0 0 0 0 0 0 0 0 0 0 0 0 0 0 0 0 0 0 0 0 0 0 0 0
0 0 0 0 0 0 0 0 0 0 0 0 0 0 0 0 0 0 0 0 0 0 0 0 0 0 0 0 0 0 0 0 0 0 0 0 0 0 0 0 0 0 0 0
0 0 0 0 0 0 0 0 0 0 0 0 0 0 0 0 0 0 0 0 0 0 0 0 0 0 0 0 0 0 0 0 0 0 0 0 0 0 0 0 0 0 0 0
0 0 0 0 0 0 0 0 0 0 0 0 0 0 0 0 0 0 0 0 0 0 0 0 0 0 0 0 0 0 0 0 0 0 0 0 0 0 0 0 0 0 0 0
0 0 0 0 0 0 0 0 0 0 0 0 0 0 0 0 0 0 0 0 0 0 0 0 0 0 0 0 0 0 0 0 0 0 0 0 0 0 0 0 0 0 0 0
0 0 0 0 0 0 0 0 0 0 0 0 0 0 0 0 0 0 0 0 0 0 0 0 0 0 0 0 0 0 0 0 0 0 0 0 0 0 0 0 0 0 0 0
0 0 0 0 0 0 0 0 0 0 0 0 0 0 0 0 0 0 0 0 0 0 0 0 0 0 0 0 0 0 0 0 0 0 0 0 0 0 0 0 0 0 0 0
0 0 0 0 0 0 0 0 0 0 0 0 0 0 0 0 0 0 0 0 0 0 0 0 0 0 0 0 0 0 0 0 0 0 0 0 0 0 0 0 0 0 0 0
Wind_Speed
13 7 6 10 12 6 10 13 11 10 5 2 7 11 12 11 10 11 10 10 9 10 9 7 6 6 6 4 4 3 4 4 4 4 6 6 5 5 5 3 2 3 4 4
5 7 11 17 16 12 10 6 5 3 3 4 5 9 11 10 11 11 11 11 10 10 8 6 4 4 4 4 3 3 5 6 6 5 6 5 6 6 5 3 3 3 4 4
3 11 19 18 13 10 8 11 7 3 7 10 7 6 9 8 10 10 10 10 9 8 6 4 2 2 3 4 4 5 4 5 6 7 6 7 6 6 5 5 4 3 5 5
4 7 10 10 9 8 6 7 11 10 5 3 4 1 3 5 6 9 10 9 7 5 4 2 1 3 5 6 5 4 4 4 5 6 7 10 9 8 8 6 6 7 7 6
9 7 7 7 7 5 4 7 3 10 10 10 11 5 4 5 8 8 9 9 7 5 2 0 2 3 5 6 6 4 3 3 4 5 7 8 8 8 8 8 9 8 7 7
20 11 6 6 8 8 8 4 5 13 10 6 3 4 7 9 11 11 9 7 5 3 2 2 3 3 3 5 5 5 4 4 4 5 6 7 8 8 10 10 10 7 5 4
13 7 5 5 7 8 10 8 3 3 1 7 9 6 5 8 8 8 7 6 3 1 2 3 4 5 5 5 5 5 5 5 5 5 5 5 7 8 10 10 8 8 7 6
2 2 5 7 8 5 8 7 6 8 5 3 7 4 3 8 8 5 3 2 0 3 4 6 7 7 6 7 6 6 5 5 5 5 5 5 7 7 6 8 9 9 8 7
7 4 2 5 6 7 9 9 12 10 9 2 8 9 7 6 6 3 1 2 3 5 7 9 9 9 8 7 6 6 5 5 5 6 6 6 5 6 8 8 9 8 7 9
9 8 3 2 3 2 8 8 8 8 8 9 6 9 6 4 3 5 6 6 7 8 9 11 10 10 9 8 6 6 6 6 6 6 6 8 7 6 6 8 8 8 8 8
7 7 7 5 7 9 8 9 8 8 9 8 7 8 8 5 5 6 7 8 9 10 11 10 9 9 9 10 9 8 7 7 6 6 6 6 7 7 7 7 7 7 7 8
6 6 6 9 11 9 3 5 7 7 8 8 7 7 4 3 5 6 7 7 9 9 9 10 10 9 9 10 10 9 9 9 7 7 6 7 7 7 8 8 7 7 7 8
8 5 5 2 4 8 5 3 4 6 7 7 8 5 0 4 8 9 9 9 8 8 9 9 9 9 9 9 10 10 10 10 10 8 8 8 9 8 8 8 8 8 8 8
5 6 6 7 6 5 7 6 4 5 7 8 9 11 10 11 10 9 8 7 8 8 8 9 8 7 8 8 8 9 10 9 10 9 9 9 9 9 9 9 9 8 9 9
4 9 10 10 10 8 8 9 7 6 7 8 10 11 10 10 8 8 7 8 8 8 9 9 8 7 7 7 8 8 9 8 8 9 10 10 9 9 9 9 9 9 9 11
2 6 11 13 12 10 10 10 6 5 7 8 9 9 10 10 9 9 9 9 8 8 10 11 10 10 9 8 8 9 8 8 8 9 10 10 10 10 10 10 10 10 10 10
5 6 9 12 12 12 9 5 2 6 8 7 9 8 9 10 9 9 8 7 7 9 10 11 11 9 8 8 7 8 8 8 9 10 10 10 11 12 12 13 12 11 11 11
6 6 6 11 13 13 6 1 2 4 5 7 7 7 9 8 7 6 6 6 8 9 10 10 11 11 10 9 9 8 9 9 10 11 11 11 11 12 12 12 13 12 10 10
7 5 7 9 12 11 2 2 2 3 8 5 4 7 9 9 10 5 7 6 7 8 9 9 10 12 11 10 9 10 10 10 11 11 11 12 12 13 14 14 13 12 10 10
5 5 7 9 13 15 13 6 6 3 2 8 6 7 9 9 8 5 7 8 8 8 8 9 10 11 10 9 9 10 11 11 11 11 12 13 13 14 14 14 13 11 10 10
7 9 10 11 13 9 7 9 1 6 4 4 6 7 7 6 6 7 8 7 7 8 9 9 10 10 9 9 9 10 10 10 11 11 12 13 13 14 14 13 10 10 10 10
9 9 9 9 10 4 6 0 5 5 3 5 6 6 6 5 6 6 7 7 7 8 9 10 9 9 8 8 9 10 10 10 11 11 13 14 14 14 13 12 11 10 9 9
6 7 5 6 7 1 3 6 5 4 5 5 6 6 5 6 6 6 6 6 7 8 9 9 10 10 9 8 9 10 10 11 11 12 13 14 15 13 13 11 11 9 7 6
9 6 7 7 9 8 9 9 7 5 6 6 5 5 6 6 6 6 6 6 7 7 8 9 10 11 10 9 9 9 10 10 11 12 13 13 13 13 12 9 8 7 6 6
12 11 11 13 11 10 10 8 8 7 7 8 6 6 6 6 6 6 5 5 6 7 7 8 9 10 11 10 10 10 10 10 12 13 12 13 12 12 11 9 7 8 5 4
12 11 9 9 8 7 8 9 11 9 8 8 8 7 6 5 5 5 4 5 5 6 7 8 9 10 11 10 10 9 9 10 11 11 11 10 10 10 9 9 9 7 6 5
Wind_Direction
232 242 327 322 298 260 207 199 202 221 260 272 154 154 155 150 143 131 130 127 120 112 111 108 104 99 97 85 69 53 25 23 350 2 339 326 325 329 315 307 2 343 327 325
317 347 296 260 255 256 247 243 160 150 317 285 207 164 150 155 143 140 140 139 136 130 127 124 119 97 84 76 48 31 27 11 356 360 319 307 328 318 302 326 344 336 339 326
189 219 236 253 271 291 323 346 326 243 220 236 228 174 145 140 135 144 142 139 135 137 132 121 82 49 36 36 24 29 30 17 11 351 330 339 329 314 320 333 321 345 338 315
337 250 256 280 296 314 336 320 297 294 267 274 34 325 134 132 158 161 147 144 143 140 149 147 333 8 9 10 8 27 31 35 15 355 340 334 322 321 328 327 327 332 319 301
304 281 291 299 302 296 250 223 328 12 13 25 41 30 285 204 193 180 164 161 156 164 184 229 321 348 2 359 355 357 14 23 7 351 334 329 323 326 322 322 312 306 296 285
301 294 300 317 318 331 311 273 45 39 28 347 231 191 229 211 197 172 165 162 164 184 243 287 311 344 8 352 348 347 357 1 359 344 327 318 320 320 314 303 295 297 298 305
294 310 316 334 343 1 316 308 341 13 168 237 216 200 216 175 153 146 153 161 168 209 271 300 342 356 356 349 355 353 353 353 347 328 317 319 315 306 296 301 324 332 323 319
293 319 319 357 347 327 299 314 323 313 298 188 170 191 132 112 107 115 117 110 263 304 336 353 359 2 358 357 360 353 348 341 333 325 319 311 295 301 316 329 326 311 300 300
336 333 10 20 338 343 336 342 337 319 318 357 146 132 120 131 137 126 40 333 336 1 0 359 1 357 359 358 356 348 343 337 331 322 311 296 317 332 321 312 302 304 311 312
332 328 360 359 294 29 342 339 354 334 345 345 65 108 123 129 51 19 355 357 10 7 2 1 355 351 353 346 346 346 341 336 328 325 328 328 334 316 310 310 308 303 301 303
354 322 324 345 13 355 352 8 2 342 358 341 353 78 95 63 32 5 355 8 11 7 359 350 347 350 346 340 342 343 340 336 332 332 331 324 316 313 306 299 301 308 310 310
7 325 343 19 3 325 349 17 359 352 344 321 329 96 80 50 44 28 11 11 14 5 352 345 345 347 341 338 339 338 338 330 330 331 325 317 313 309 306 307 308 304 300 299
349 323 317 30 311 281 295 7 355 338 303 311 331 75 161 26 41 31 22 11 360 358 353 346 346 342 335 336 334 331 326 326 327 323 319 315 311 308 305 303 300 297 294 291
292 296 317 331 337 327 320 324 349 329 327 331 343 351 356 32 24 12 1 352 351 355 353 345 341 334 332 330 328 323 322 324 321 321 315 309 306 304 302 299 296 295 293 291
284 311 324 316 316 310 311 315 322 320 319 313 329 333 8 32 7 357 350 351 345 346 344 340 335 329 328 327 324 318 318 319 319 314 309 305 303 302 299 297 296 294 292 292
219 305 310 310 314 296 291 295 282 298 304 302 316 328 17 7 357 353 349 338 335 343 340 334 331 329 326 323 317 315 315 317 317 310 307 306 304 303 301 299 296 295 294 293
304 310 309 305 307 299 304 317 299 323 321 322 316 341 8 351 343 333 325 326 345 343 336 334 333 325 320 314 313 313 316 318 316 311 310 308 308 308 306 305 303 299 298 295
256 290 295 294 304 300 317 83 16 345 329 307 313 10 360 335 334 340 29 21 351 339 338 335 327 321 318 321 321 322 318 318 318 315 314 313 311 309 306 303 299 297 295 293
223 252 284 294 293 296 312 197 151 342 313 321 7 358 336 343 324 76 61 10 348 348 337 327 322 320 319 317 324 322 315 318 318 317 317 316 313 307 304 301 299 298 295 292
223 207 252 276 289 295 304 115 104 334 335 55 15 351 341 333 319 4 20 357 356 342 329 324 321 320 318 322 325 317 316 319 320 322 320 314 308 304 302 298 295 295 293 290
231 232 245 267 277 291 75 109 279 315 44 2 344 342 328 343 323 325 332 344 341 331 327 326 326 322 322 322 323 317 317 320 325 322 316 311 306 302 297 293 294 294 294 293
293 282 276 278 282 309 105 30 324 348 336 314 323 317 319 315 307 313 326 332 332 332 330 332 325 322 323 326 328 321 322 327 323 318 314 311 307 305 302 301 298 295 293 293
291 295 305 304 316 353 255 286 296 288 276 279 290 308 314 305 306 314 322 330 333 329 331 328 325 323 326 332 332 325 329 327 323 318 313 310 308 305 300 297 297 298 297 296
306 336 306 290 285 283 283 293 291 274 266 266 273 284 286 289 298 309 320 326 325 329 327 327 326 324 326 332 334 333 330 328 323 316 313 311 308 306 303 300 297 297 300 306
300 290 278 273 275 275 274 278 284 273 258 253 255 262 268 274 285 300 314 322 328 323 324 326 323 325 327 333 333 335 334 330 321 316 313 311 308 305 303 301 295 294 297 300
290 295 298 301 305 291 291 285 275 264 249 250 253 258 262 265 277 296 312 323 317 317 324 324 326 326 327 329 330 334 334 328 320 315 314 311 307 304 303 302 304 289 272 254